Algona, IA

3:44 PM CST on January 19, 2018 (GMT -0600)
Algona Municipal

Weather History for KAXA - July, 2013

Change the Weather History Date:

Friday, July 5, 2013

  Actual Average Record
Temperature  
Mean Temperature 76 °F -  
Max Temperature 87 °F 80 °F 91 °F (1999)
Min Temperature 66 °F 61 °F 50 °F (1997)
Cooling Degree Days 12    
Growing Degree Days 26 (Base 50)    
Moisture  
Dew Point 60 °F    
Average Humidity 55    
Maximum Humidity 73    
Minimum Humidity 40    
Precipitation  
Precipitation 0.00 in - - ()
Sea Level Pressure  
Sea Level Pressure 29.91 in    
Wind  
Wind Speed 15 mph (South)    
Max Wind Speed 26 mph    
Max Gust Speed 33 mph    
Visibility 10 miles    
Events      
Averages and records for this station are not official NWS values.
T = Trace of Precipitation, MM = Missing Value Source: NWS Daily Summary

Daily Weather History Graph

Daily Weather History Graph

Search for Another Location

Airport or City:

Trip Planner

Search our weather history database for the weather conditions in past years. The results will help you decide how hot, cold, wet, or windy it might be!

Date:

Astronomy

Jul. 05, 2013 Rise Set
Actual Time 5:43 AM CDT 8:59 PM CDT
Civil Twilight 5:08 AM CDT 9:34 PM CDT
Nautical Twilight 4:23 AM CDT 10:19 PM CDT
Astronomical Twilight 3:28 AM CDT 11:14 PM CDT
Moon 3:45 AM CDT (7/5) 6:53 PM CDT (7/5)
Length of Visible Light 16h 25m
Length of Day
15h 15m
Waning Crescent, 6% of the Moon is Illuminated
Jul 5
Waning Crescent
Jul 8
New
Jul 15
First Quarter
Jul 22
Full
Jul 29
Last Quarter

Hourly Weather History & Observations

Time (CDT) Temp. Heat Index Dew Point Humidity Pressure Visibility Wind Dir Wind Speed Gust Speed Precip Events Conditions
12:15 AM 73.4 °F - 57.2 °F 57% 29.94 in 10.0 mi SSE 13.8 mph - N/A   Clear
12:35 AM 71.6 °F - 57.2 °F 60% 29.94 in 10.0 mi SSE 12.7 mph 18.4 mph N/A   Clear
12:55 AM 71.6 °F - 57.2 °F 60% 29.94 in 10.0 mi SSE 12.7 mph - N/A   Clear
1:15 AM 71.6 °F - 57.2 °F 60% 29.94 in 10.0 mi SSE 11.5 mph - N/A   Clear
1:35 AM 69.8 °F - 57.2 °F 64% 29.94 in 10.0 mi SSE 10.4 mph - N/A   Clear
1:55 AM 69.8 °F - 57.2 °F 64% 29.94 in 10.0 mi SSE 12.7 mph - N/A   Clear
2:15 AM 69.8 °F - 57.2 °F 64% 29.94 in 10.0 mi SSE 10.4 mph - N/A   Partly Cloudy
2:35 AM 68.0 °F - 57.2 °F 68% 29.94 in 10.0 mi South 13.8 mph - N/A   Scattered Clouds
2:55 AM 68.0 °F - 57.2 °F 68% 29.93 in 10.0 mi South 12.7 mph 18.4 mph N/A   Mostly Cloudy
3:15 AM 68.0 °F - 57.2 °F 68% 29.94 in 10.0 mi South 12.7 mph - N/A   Mostly Cloudy
3:35 AM 68.0 °F - 57.2 °F 68% 29.94 in 10.0 mi South 13.8 mph - N/A   Partly Cloudy
3:55 AM 68.0 °F - 57.2 °F 68% 29.94 in 10.0 mi South 10.4 mph 17.3 mph N/A   Clear
4:15 AM 68.0 °F - 57.2 °F 68% 29.94 in 10.0 mi South 10.4 mph - N/A   Clear
4:35 AM 68.0 °F - 57.2 °F 68% 29.94 in 10.0 mi South 12.7 mph - N/A   Clear
4:55 AM 66.2 °F - 57.2 °F 73% 29.94 in 10.0 mi South 12.7 mph - N/A   Clear
5:15 AM 68.0 °F - 57.2 °F 68% 29.93 in 10.0 mi South 13.8 mph - N/A   Clear
5:35 AM 68.0 °F - 57.2 °F 68% 29.93 in 10.0 mi South 15.0 mph - N/A   Clear
5:55 AM 66.2 °F - 57.2 °F 73% 29.93 in 10.0 mi South 13.8 mph - N/A   Clear
6:15 AM 66.2 °F - 57.2 °F 73% 29.93 in 10.0 mi South 11.5 mph - N/A   Clear
6:35 AM 66.2 °F - 57.2 °F 73% 29.94 in 10.0 mi South 10.4 mph - N/A   Clear
6:55 AM 68.0 °F - 57.2 °F 68% 29.94 in 10.0 mi South 11.5 mph - N/A   Clear
7:15 AM 68.0 °F - 57.2 °F 68% 29.94 in 10.0 mi South 13.8 mph - N/A   Clear
7:35 AM 69.8 °F - 59.0 °F 68% 29.93 in 10.0 mi South 17.3 mph - N/A   Clear
7:55 AM 71.6 °F - 59.0 °F 64% 29.93 in 10.0 mi South 16.1 mph 21.9 mph N/A   Clear
8:15 AM 73.4 °F - 59.0 °F 61% 29.93 in 10.0 mi South 17.3 mph - N/A   Clear
8:35 AM 75.2 °F - 59.0 °F 57% 29.93 in 10.0 mi South 18.4 mph - N/A   Clear
8:55 AM 75.2 °F - 59.0 °F 57% 29.93 in 10.0 mi South 16.1 mph 23.0 mph N/A   Clear
9:15 AM 77.0 °F - 60.8 °F 57% 29.92 in 10.0 mi South 20.7 mph - N/A   Clear
9:35 AM 78.8 °F - 60.8 °F 54% 29.92 in 10.0 mi South 17.3 mph 25.3 mph N/A   Clear
9:55 AM 78.8 °F - 60.8 °F 54% 29.91 in 10.0 mi South 18.4 mph 26.5 mph N/A   Clear
10:15 AM 80.6 °F 81.5 °F 60.8 °F 51% 29.91 in 10.0 mi South 21.9 mph - N/A   Clear
10:35 AM 82.4 °F 82.9 °F 60.8 °F 48% 29.91 in 10.0 mi South 20.7 mph 28.8 mph N/A   Clear
10:55 AM 84.2 °F 84.4 °F 60.8 °F 45% 29.91 in 9.0 mi South 23.0 mph - N/A   Clear
11:15 AM 84.2 °F 84.4 °F 60.8 °F 45% 29.91 in 9.0 mi SSW 21.9 mph 28.8 mph N/A   Clear
11:35 AM 82.4 °F 82.9 °F 60.8 °F 48% 29.91 in 10.0 mi South 19.6 mph 27.6 mph N/A   Clear
11:55 AM 82.4 °F 82.9 °F 60.8 °F 48% 29.91 in 10.0 mi South 20.7 mph - N/A   Clear
12:15 PM 82.4 °F 82.9 °F 60.8 °F 48% 29.91 in 10.0 mi South 17.3 mph 25.3 mph N/A   Clear
12:35 PM 82.4 °F 83.4 °F 62.6 °F 51% 29.91 in 10.0 mi South 16.1 mph 25.3 mph N/A   Clear
12:55 PM 82.4 °F 83.4 °F 62.6 °F 51% 29.90 in 10.0 mi South 18.4 mph 25.3 mph N/A   Clear
1:15 PM 84.2 °F 85.0 °F 62.6 °F 48% 29.89 in 10.0 mi South 19.6 mph 26.5 mph N/A   Clear
1:35 PM 84.2 °F 84.4 °F 60.8 °F 45% 29.89 in 10.0 mi SSW 20.7 mph 29.9 mph N/A   Clear
1:55 PM 84.2 °F 84.4 °F 60.8 °F 45% 29.89 in 10.0 mi SW 19.6 mph - N/A   Clear
2:15 PM 84.2 °F 85.0 °F 62.6 °F 48% 29.89 in 10.0 mi SSW 20.7 mph - N/A   Clear
2:35 PM 84.2 °F 85.0 °F 62.6 °F 48% 29.88 in 10.0 mi South 19.6 mph - N/A   Partly Cloudy
2:55 PM 86.0 °F 86.6 °F 62.6 °F 45% 29.88 in 9.0 mi South 17.3 mph 24.2 mph N/A   Partly Cloudy
3:15 PM 86.0 °F 86.6 °F 62.6 °F 45% 29.88 in 10.0 mi South 23.0 mph - N/A   Partly Cloudy
3:35 PM 87.8 °F 88.5 °F 62.6 °F 43% 29.87 in 10.0 mi South 20.7 mph 28.8 mph N/A   Partly Cloudy
3:55 PM 86.0 °F 86.1 °F 60.8 °F 43% 29.87 in 10.0 mi SSW 21.9 mph 28.8 mph N/A   Partly Cloudy
4:15 PM 87.8 °F 88.5 °F 62.6 °F 43% 29.87 in 10.0 mi SSW 20.7 mph 33.4 mph N/A   Clear
4:35 PM 87.8 °F 88.5 °F 62.6 °F 43% 29.87 in 10.0 mi South 23.0 mph 32.2 mph N/A   Clear
4:55 PM 87.8 °F 87.6 °F 60.8 °F 40% 29.87 in 10.0 mi South 25.3 mph 32.2 mph N/A   Clear
5:15 PM 87.8 °F 88.5 °F 62.6 °F 43% 29.87 in 10.0 mi South 20.7 mph 29.9 mph N/A   Clear
5:35 PM 87.8 °F 87.6 °F 60.8 °F 40% 29.86 in 10.0 mi South 26.5 mph - N/A   Partly Cloudy
5:55 PM 87.8 °F 87.6 °F 60.8 °F 40% 29.86 in 10.0 mi South 18.4 mph 27.6 mph N/A   Clear
6:15 PM 87.8 °F 87.6 °F 60.8 °F 40% 29.86 in 10.0 mi South 19.6 mph 27.6 mph N/A   Partly Cloudy
6:35 PM 87.8 °F 87.6 °F 60.8 °F 40% 29.86 in 10.0 mi South 24.2 mph - N/A   Partly Cloudy
6:55 PM 86.0 °F 86.1 °F 60.8 °F 43% 29.86 in 10.0 mi SSW 20.7 mph - N/A   Clear
7:15 PM 86.0 °F 86.6 °F 62.6 °F 45% 29.87 in 10.0 mi South 19.6 mph 26.5 mph N/A   Partly Cloudy
7:35 PM 84.2 °F 85.0 °F 62.6 °F 48% 29.87 in 10.0 mi South 17.3 mph - N/A   Partly Cloudy
7:55 PM 84.2 °F 85.0 °F 62.6 °F 48% 29.87 in 10.0 mi South 17.3 mph 23.0 mph N/A   Clear
8:15 PM 82.4 °F 82.9 °F 60.8 °F 48% 29.88 in 10.0 mi South 15.0 mph - N/A   Clear
8:35 PM 80.6 °F 81.8 °F 62.6 °F 54% 29.88 in 8.0 mi South 15.0 mph - N/A   Clear
8:55 PM 78.8 °F - 62.6 °F 57% 29.88 in 8.0 mi South 13.8 mph - N/A   Clear
9:15 PM 78.8 °F - 60.8 °F 54% 29.87 in 10.0 mi South 13.8 mph - N/A   Clear
9:35 PM 78.8 °F - 60.8 °F 54% 29.88 in 10.0 mi South 13.8 mph 19.6 mph N/A   Clear
9:55 PM 78.8 °F - 60.8 °F 54% 29.88 in 10.0 mi SSE 13.8 mph - N/A   Clear
10:15 PM 77.0 °F - 60.8 °F 57% 29.89 in 10.0 mi South 13.8 mph 21.9 mph N/A   Clear
10:35 PM 77.0 °F - 60.8 °F 57% 29.89 in 10.0 mi South 15.0 mph - N/A   Clear
10:55 PM 77.0 °F - 60.8 °F 57% 29.89 in 10.0 mi South 16.1 mph - N/A   Clear
11:15 PM 77.0 °F - 59.0 °F 54% 29.90 in 10.0 mi South 15.0 mph - N/A   Clear
11:35 PM 75.2 °F - 59.0 °F 57% 29.90 in 10.0 mi South 13.8 mph - N/A   Clear
11:55 PM 75.2 °F - 59.0 °F 57% 29.90 in 10.0 mi South 16.1 mph - N/A   Clear